Home > Weather > Santiago > Past weeks

Flag for Chile Weather for the Past 2 Weeks in Santiago, Chile

Now
66 °F

Clear.


Feels Like: 66 °F
Forecast: 56 / 86 °F
Wind: 9 mph from South

Location: Pudahuel

Current Time: Feb 13, 2016 at 12:40:45 AM

Latest Report: Feb 12, 2016 at 11:00 PM


Visibility: 10 mi

Pressure: 29.98 "Hg (28.03 "Hg at 576m altitude)

Humidity: 56%

Dew point: 50 °F

Location of SantiagoLocation

Historic Weather in Santiago — Graph

°F

Santiago Temperature Yesterday

Maximum temperature yesterday: 82 °F (at 6:00 PM)
Minimum temperature yesterday: 57 °F (at 5:00 AM)
Average temperature yesterday: 68 °F

High & Low Weather Summary for the Past Weeks

 TemperatureHumidityPressure
High93 °F (Jan 30, 5:00 PM)94% (Feb 1, 7:00 AM)30.04 "Hg (Feb 1, 7:00 AM)
Low55 °F (Feb 5, 8:00 AM)17% (Jan 30, 5:00 PM)29.86 "Hg (Jan 30, 5:00 PM)
Average70 °F58%29.94 "Hg
* Reported Jan 28 11:00 PM — Feb 12 11:00 PM, Santiago, Weather by CustomWeather, © 2016

Note: Actual official high and low records may vary slightly from our data, if they occured in-between our weather recording intervals... More about our weather records

Advertising

Santiago Weather History for the Previous 24 Hours

 ConditionsComfort  
Time TempWeatherWind HumidityBarometerVisibility
11:00 PM
Fri, Feb 12
66 °FClear.9 mph56%29.98 "Hg10 mi
10:00 PM68 °FClear.9 mph53%29.95 "Hg10 mi
9:00 PM72 °FClear.12 mph47%29.92 "Hg10 mi
8:00 PM75 °FSunny.15 mph41%29.92 "Hg10 mi
7:00 PM81 °FSunny.15 mph32%29.92 "Hg10 mi
6:00 PM82 °FSunny.17 mph30%29.92 "Hg10 mi
5:00 PM81 °FSunny.15 mph34%29.92 "Hg10 mi
4:00 PM81 °FPassing clouds.16 mph34%29.92 "HgN/A
3:00 PM79 °FPassing clouds.16 mph39%29.95 "HgN/A
2:00 PM77 °FPassing clouds.13 mph42%29.95 "HgN/A
1:00 PM73 °FPassing clouds.9 mph47%29.98 "HgN/A
12:00 PM70 °FClear.10 mph57%29.98 "Hg5 mi
11:00 AM66 °FClear.7 mph64%29.98 "Hg5 mi
10:00 AM63 °FClear.7 mph68%29.98 "Hg5 mi
9:00 AM59 °FClear.7 mph77%29.95 "Hg5 mi
8:00 AM57 °FSunny.5 mph82%29.95 "Hg10 mi
7:00 AM57 °FPassing clouds.8 mph82%29.95 "HgN/A
6:00 AM57 °FPassing clouds.7 mph82%29.92 "HgN/A
5:00 AM57 °FPassing clouds.7 mph82%29.92 "HgN/A
4:00 AM59 °FPassing clouds.10 mph77%29.92 "HgN/A
3:00 AM59 °FPassing clouds.9 mph77%29.92 "HgN/A
2:00 AM61 °FPassing clouds.12 mph72%29.92 "HgN/A
1:00 AM63 °FPassing clouds.9 mph68%29.92 "HgN/A
12:00 AM64 °FPassing clouds.13 mph64%29.92 "HgN/A
Weather by CustomWeather, © 2016

See weather overviewHow to use our weather pages